Temp
-7 -6 -6 -6 -7 -6 -6 -6 -6 -6 -5 -5 -5 -5 -6 -6 -6 -7 -7 -7 -7 -7 -7 -7 -7 -7 -8 -7 -7 -7 -7 -7 -7
-6 -6 -6 -7 -7 -7 -6 -6 -6 -6 -5 -5 -5 -6 -6 -6 -7 -7 -7 -7 -7 -7 -7 -7 -7 -7 -7 -7 -7 -7 -7 -7 -7
-6 -6 -7 -7 -7 -7 -7 -7 -6 -6 -5 -5 -5 -6 -6 -6 -7 -7 -7 -7 -7 -7 -7 -7 -7 -7 -7 -7 -7 -7 -7 -7 -6
-7 -7 -7 -7 -8 -7 -7 -7 -6 -6 -5 -5 -6 -6 -6 -6 -6 -6 -7 -7 -7 -7 -8 -8 -8 -8 -7 -7 -6 -7 -8 -7 -7
-7 -7 -7 -8 -8 -8 -7 -7 -6 -6 -5 -6 -6 -6 -6 -6 -6 -6 -7 -7 -7 -7 -8 -8 -8 -8 -8 -8 -7 -8 -8 -8 -7
-7 -7 -7 -8 -8 -8 -8 -8 -7 -6 -6 -6 -6 -6 -6 -6 -6 -6 -6 -7 -7 -7 -7 -8 -8 -8 -8 -8 -8 -8 -8 -8 -8
-8 -7 -7 -7 -8 -8 -8 -8 -8 -7 -6 -6 -6 -7 -7 -7 -6 -6 -6 -6 -7 -7 -7 -7 -7 -7 -8 -7 -7 -7 -7 -7 -7
-8 -8 -7 -7 -7 -8 -7 -8 -8 -8 -7 -6 -6 -7 -7 -7 -7 -7 -6 -7 -7 -7 -7 -7 -7 -7 -7 -7 -8 -7 -7 -8 -8
-8 -8 -8 -8 -7 -7 -8 -8 -8 -8 -7 -7 -6 -7 -7 -7 -7 -7 -7 -7 -7 -7 -7 -7 -8 -8 -8 -7 -8 -8 -8 -8 -8
-8 -8 -8 -8 -8 -8 -7 -7 -8 -8 -8 -8 -7 -6 -6 -6 -7 -7 -7 -7 -7 -7 -8 -8 -8 -8 -8 -8 -8 -8 -8 -9 -9
-8 -9 -8 -8 -8 -8 -8 -8 -8 -8 -8 -8 -8 -7 -6 -6 -6 -7 -7 -7 -7 -7 -7 -8 -8 -8 -8 -7 -7 -7 -7 -8 -8
-9 -9 -9 -9 -9 -8 -8 -8 -8 -8 -8 -7 -9 -8 -7 -7 -7 -6 -7 -7 -7 -7 -7 -8 -8 -8 -7 -7 -7 -7 -7 -7 -8
-9 -9 -9 -9 -9 -9 -8 -8 -7 -8 -8 -7 -9 -8 -8 -8 -8 -7 -7 -7 -7 -8 -7 -8 -8 -8 -7 -7 -7 -7 -7 -7 -7
-9 -9 -9 -9 -9 -9 -8 -8 -8 -7 -8 -8 -9 -9 -9 -9 -9 -8 -8 -8 -8 -8 -8 -8 -8 -7 -7 -7 -7 -7 -7 -7 -7
-9 -9 -9 -9 -9 -9 -9 -8 -8 -7 -9 -9 -9 -9 -10 -9 -9 -8 -8 -9 -8 -9 -8 -8 -8 -8 -7 -7 -7 -7 -7 -7 -7
-9 -9 -10 -9 -9 -9 -9 -9 -8 -8 -8 -8 -8 -9 -10 -9 -9 -9 -9 -9 -9 -9 -8 -8 -8 -8 -7 -7 -7 -7 -7 -7 -7
-9 -9 -10 -10 -9 -9 -9 -9 -9 -9 -8 -9 -9 -8 -9 -9 -10 -10 -10 -9 -8 -8 -8 -8 -7 -7 -7 -7 -7 -7 -7 -7 -7
-8 -9 -9 -10 -9 -9 -9 -9 -9 -9 -9 -9 -9 -8 -8 -8 -9 -9 -10 -9 -9 -8 -8 -8 -8 -7 -7 -7 -7 -7 -7 -6 -6
-9 -9 -9 -9 -10 -9 -9 -9 -9 -9 -9 -9 -8 -8 -8 -8 -8 -10 -10 -9 -9 -9 -9 -8 -8 -8 -7 -7 -7 -7 -7 -7 -6
-8 -8 -9 -9 -9 -10 -9 -9 -9 -9 -9 -9 -9 -9 -10 -10 -9 -10 -10 -9 -9 -9 -9 -8 -8 -8 -7 -7 -7 -7 -7 -7 -7
Height
5912 5910 5909 5908 5909 5910 5910 5909 5910 5911 5910 5909 5908 5907 5906 5906 5906 5907 5908 5908 5909 5910 5910 5911 5912 5912 5912 5912 5913 5914 5914 5913 5914
5909 5908 5906 5906 5907 5908 5909 5909 5909 5910 5910 5909 5907 5905 5904 5904 5904 5905 5906 5907 5907 5907 5907 5908 5909 5909 5909 5909 5908 5908 5909 5907 5906
5906 5904 5903 5905 5905 5906 5907 5908 5909 5909 5909 5909 5907 5904 5903 5902 5902 5902 5903 5903 5904 5904 5904 5905 5906 5906 5906 5906 5906 5905 5904 5901 5899
5903 5901 5902 5903 5905 5904 5904 5906 5907 5907 5908 5908 5906 5905 5904 5903 5903 5902 5902 5902 5902 5902 5902 5902 5902 5902 5902 5903 5902 5902 5901 5900 5897
5901 5901 5901 5901 5902 5903 5903 5903 5905 5906 5906 5906 5905 5904 5903 5903 5902 5901 5901 5901 5902 5900 5900 5901 5901 5900 5900 5900 5899 5899 5898 5898 5899
5896 5898 5899 5899 5899 5900 5901 5901 5902 5904 5904 5906 5904 5904 5903 5903 5903 5901 5901 5901 5900 5899 5899 5900 5900 5900 5900 5899 5898 5897 5897 5896 5895
5890 5893 5894 5895 5896 5896 5898 5898 5898 5900 5902 5903 5904 5903 5903 5903 5903 5902 5901 5901 5900 5900 5899 5898 5898 5898 5898 5898 5898 5897 5895 5894 5892
5883 5886 5889 5890 5891 5892 5891 5894 5896 5897 5898 5900 5902 5901 5901 5901 5902 5902 5901 5901 5900 5899 5898 5897 5897 5897 5896 5895 5895 5895 5894 5892 5890
5874 5878 5881 5883 5885 5886 5887 5887 5890 5892 5893 5895 5897 5898 5897 5898 5898 5899 5899 5900 5899 5898 5896 5896 5896 5895 5894 5894 5892 5891 5891 5890 5886
5865 5869 5872 5875 5878 5879 5881 5881 5882 5885 5887 5889 5891 5895 5895 5895 5895 5894 5894 5896 5896 5896 5894 5893 5892 5892 5892 5891 5889 5888 5886 5885 5883
5854 5858 5862 5866 5869 5872 5874 5874 5874 5868 5864 5880 5885 5888 5891 5890 5890 5891 5890 5890 5891 5891 5891 5890 5889 5888 5888 5887 5885 5884 5882 5881 5879
5843 5847 5851 5855 5859 5863 5866 5867 5865 5864 5868 5868 5878 5882 5884 5885 5885 5885 5886 5886 5887 5887 5887 5886 5886 5884 5884 5882 5880 5879 5878 5877 5875
5828 5835 5839 5844 5848 5853 5857 5860 5861 5857 5863 5865 5870 5875 5877 5878 5878 5879 5880 5881 5881 5881 5881 5881 5880 5879 5878 5877 5876 5875 5874 5873 5871
5813 5820 5825 5832 5837 5842 5847 5850 5853 5855 5852 5848 5862 5868 5869 5871 5872 5872 5873 5874 5875 5874 5874 5874 5873 5873 5872 5870 5870 5869 5869 5868 5866
5801 5807 5813 5819 5826 5831 5837 5841 5844 5844 5846 5851 5855 5858 5861 5863 5864 5865 5865 5866 5867 5867 5867 5866 5865 5865 5865 5864 5863 5862 5861 5861 5860
5787 5791 5799 5807 5814 5821 5827 5832 5836 5839 5840 5842 5846 5848 5853 5854 5855 5857 5858 5858 5859 5859 5859 5858 5858 5858 5857 5856 5856 5854 5854 5853 5852
5772 5778 5786 5794 5802 5810 5817 5822 5825 5828 5831 5833 5835 5837 5835 5842 5845 5847 5847 5848 5850 5852 5851 5851 5850 5850 5850 5850 5848 5847 5845 5843 5842
5758 5766 5773 5781 5790 5799 5806 5811 5814 5817 5820 5824 5827 5826 5823 5831 5835 5839 5841 5841 5842 5844 5844 5843 5843 5843 5842 5842 5840 5839 5836 5834 5832
5746 5753 5760 5767 5777 5787 5793 5799 5803 5807 5811 5816 5821 5819 5813 5814 5814 5824 5831 5834 5836 5834 5834 5834 5834 5834 5833 5833 5831 5829 5828 5826 5824
5732 5740 5748 5756 5763 5772 5779 5786 5792 5798 5803 5807 5811 5812 5803 5801 5797 5811 5821 5825 5825 5826 5826 5826 5826 5825 5823 5822 5821 5819 5817 5815 5814
Wind_Speed
14 15 15 13 14 13 11 4 4 6 2 1 2 3 3 4 4 7 7 6 7 10 12 14 14 13 13 14 14 14 16 18 14
19 18 14 12 14 14 12 5 4 8 5 3 4 5 4 4 4 5 6 8 7 7 7 7 11 12 12 14 15 16 20 23 29
15 15 13 8 14 15 13 9 6 9 5 1 4 4 5 5 3 1 2 4 6 5 6 7 8 11 12 13 14 17 14 15 20
9 8 10 10 14 15 15 9 9 8 5 3 3 4 6 5 4 3 2 0 0 3 5 6 8 7 8 9 10 4 5 11 15
18 11 6 12 12 9 9 10 10 10 9 5 2 4 6 5 6 3 2 4 3 3 4 8 8 5 6 6 6 6 7 8 7
22 20 16 14 12 10 11 9 12 13 11 8 4 1 5 6 5 5 3 3 2 3 4 4 5 6 6 7 8 9 9 9 8
26 24 22 20 18 17 13 12 14 16 14 11 7 3 1 2 2 5 5 6 4 3 2 2 4 5 5 6 8 11 13 14 13
32 28 28 26 22 23 24 22 21 21 17 16 13 9 7 5 3 1 3 3 2 2 2 4 5 6 7 8 8 8 10 14 16
31 33 29 31 30 27 29 31 29 25 21 19 18 15 13 10 7 5 3 2 2 2 2 3 2 3 6 7 9 9 14 12 15
25 35 34 34 34 33 31 30 34 27 22 21 21 20 17 14 11 8 5 7 7 5 7 7 7 8 10 11 13 16 14 15 15
29 33 42 39 39 36 35 31 38 52 45 27 22 21 20 16 14 12 10 10 10 10 10 11 12 13 14 15 15 15 15 15 17
41 34 37 40 38 35 36 33 36 41 50 32 28 19 22 20 18 17 14 14 13 12 14 15 15 16 16 17 14 12 13 14 17
43 42 37 37 36 36 38 38 31 30 26 32 26 20 22 21 20 20 17 18 16 14 15 17 20 19 18 17 17 15 13 15 16
45 47 47 38 36 39 37 34 31 35 45 35 27 25 26 25 26 25 23 19 20 17 18 20 21 21 20 20 19 17 16 16 18
45 43 49 44 39 42 40 36 34 34 34 30 30 29 28 30 27 25 23 20 19 21 23 22 21 22 23 23 22 22 23 20 20
40 41 51 48 43 44 44 39 37 36 34 32 35 31 32 32 30 27 24 22 23 25 24 22 21 22 24 25 25 25 26 25 26
41 41 53 52 46 43 42 43 42 40 36 38 42 46 39 37 33 33 29 25 26 25 22 19 20 21 23 26 27 28 30 31 30
42 44 47 57 53 45 44 46 48 47 45 45 46 43 38 44 43 38 35 31 26 22 20 19 21 25 26 28 29 30 31 32 34
37 41 48 57 57 53 48 47 49 51 50 50 44 49 49 52 47 37 33 26 21 18 20 22 25 27 27 28 29 31 32 34 34
35 37 44 54 59 60 56 53 48 45 45 48 48 51 59 65 22 25 22 20 18 21 23 23 25 27 29 30 32 34 35 36 37
Wind_Direction
264 269 261 238 246 249 259 300 294 276 282 323 14 335 305 265 252 247 241 245 256 263 259 253 257 251 255 259 255 254 251 253 249
270 290 237 220 231 245 247 280 302 283 280 303 336 334 317 297 268 253 238 238 243 262 267 258 253 253 263 274 274 269 266 267 258
267 287 227 228 239 244 251 249 247 249 243 210 359 24 61 60 68 71 196 217 230 257 274 282 276 269 267 273 293 304 308 331 267
260 211 216 225 242 252 263 253 242 235 230 193 43 75 78 67 78 79 88 30 354 10 352 324 304 290 283 313 344 323 320 336 349
232 196 191 211 227 232 242 248 242 246 231 203 102 67 89 59 40 70 107 105 81 16 359 14 360 345 320 316 309 319 327 321 323
231 230 214 223 227 233 241 241 252 254 242 236 172 31 74 78 69 75 130 128 82 52 46 14 32 42 10 340 321 314 310 305 303
228 230 228 221 233 242 242 244 275 258 248 233 220 192 171 100 54 79 89 91 92 77 61 24 7 357 353 343 335 330 326 321 312
223 227 230 235 225 229 230 233 247 254 248 240 228 207 208 204 226 198 158 127 111 71 33 35 51 59 3 1 344 349 333 330 304
220 222 226 230 233 230 235 243 233 237 241 237 233 222 212 212 212 220 224 237 272 305 352 12 9 284 294 300 312 314 317 329 347
228 215 218 220 223 232 239 258 230 225 238 237 233 234 225 223 225 235 262 291 301 312 321 326 328 323 330 319 299 303 312 304 323
234 221 215 220 226 239 246 233 223 235 206 225 238 241 238 231 238 245 257 269 285 303 306 308 311 312 315 318 318 307 313 308 317
247 236 225 223 229 233 233 232 231 238 244 201 229 244 251 245 236 236 249 264 273 286 298 300 304 305 308 312 313 314 311 316 317
240 240 239 224 224 223 227 241 241 250 234 219 226 236 254 257 260 253 247 257 267 278 288 298 300 299 304 306 305 304 304 310 305
241 231 236 231 227 225 222 234 243 227 229 236 222 232 246 257 265 259 253 256 264 278 288 292 292 295 298 298 297 296 298 302 300
243 237 226 230 224 224 224 229 235 245 236 216 224 234 246 255 260 249 248 257 267 277 282 285 286 290 292 293 297 296 300 298 300
243 237 220 221 225 222 225 229 229 237 230 230 236 230 241 249 259 259 259 259 266 270 273 274 277 283 289 292 294 295 295 296 299
240 229 219 217 218 220 219 221 219 227 230 232 239 237 226 241 248 250 246 249 257 264 263 268 278 280 283 285 287 289 293 295 295
241 226 220 219 217 215 217 221 219 223 227 230 239 247 247 241 244 246 246 252 257 258 264 270 275 278 281 282 285 288 290 293 296
237 228 217 217 218 217 217 217 224 232 233 237 236 245 236 232 221 227 240 251 252 259 273 276 277 281 283 281 281 282 284 286 287
240 232 225 219 218 219 220 223 227 231 235 239 242 250 261 264 185 210 234 247 259 271 276 286 289 287 285 283 282 283 283 283 283